This is the latest recevied weather packets stored in our database for station/object 9W2UHF-10. If no packets are shown the sender has not sent any weather packets the latest 10 day(s).
| Time | Temp. | Humidity | Pressure | Rain* | Wind** | Luminosity | Snow |
|---|---|---|---|---|---|---|---|
| 1777360629 | 35.56° C | 50% | 1008.1 hPa | - | - | - | - |
| 1777359429 | 35.56° C | 49% | 1008.5 hPa | - | - | - | - |
| 1777358229 | 35.56° C | 50% | 1008.9 hPa | - | - | - | - |
| 1777357142 | 35° C | 52% | 1009.4 hPa | - | - | - | - |
| 1777357029 | 35° C | 52% | 1009.4 hPa | - | - | - | - |
| 1777355829 | 34.44° C | 54% | 1009.8 hPa | - | - | - | - |
| 1777354629 | 34.44° C | 56% | 1010.2 hPa | - | - | - | - |
| 1777353515 | 33.89° C | 57% | 1010.5 hPa | - | - | - | - |
| 1777353429 | 33.89° C | 57% | 1010.5 hPa | - | - | - | - |
| 1777352229 | 33.33° C | 60% | 1010.7 hPa | - | - | - | - |
| 1777351029 | 33.89° C | 59% | 1010.9 hPa | - | - | - | - |
| 1777349558 | 32.78° C | 62% | 1011.2 hPa | - | - | - | - |
| 1777349188 | 32.78° C | 62% | 1011.2 hPa | - | - | - | - |
| 1777347988 | 32.78° C | 61% | 1011.5 hPa | - | - | - | - |
| 1777346977 | 32.22° C | 62% | 1011.5 hPa | - | - | - | - |
| 1777346786 | 32.22° C | 62% | 1011.5 hPa | - | - | - | - |
| 1777345586 | 31.67° C | 64% | 1011.5 hPa | - | - | - | - |
| 1777344386 | 31.11° C | 64% | 1011.7 hPa | - | - | - | - |
| 1777343186 | 31.11° C | 66% | 1011.7 hPa | - | - | - | - |
| 1777341986 | 30.56° C | 67% | 1011.7 hPa | - | - | - | - |
| 1777340786 | 30.56° C | 66% | 1011.7 hPa | - | - | - | - |
| 1777339634 | 30.56° C | 69% | 1011.6 hPa | - | - | - | - |
| 1777339586 | 30.56° C | 69% | 1011.6 hPa | - | - | - | - |
| 1777338385 | 30.56° C | 70% | 1011.5 hPa | - | - | - | - |
| 1777337291 | 30° C | 70% | 1011.2 hPa | - | - | - | - |
* Rain since midnight (hover to see other rain measurements)
** Current wind speed in m/s (hover to see current wind gust speed)